• In Austria
  • List of Countries
  • For 7 days
  • Water Temperature
  • Satellite Maps
  • Weather Map
  • News
  • Weather Widgets
  • user-avatar
    Login

    Hourly Weather Kwiecie

    Today, 24 April, Tuesday

    Time Temperature Precipitation Wind Pressure Humidity
    00:00 +12°C° 0 mm 1 mps 754 mmHg 89%
    01:00 +11°C° 0 mm 1 mps 754 mmHg 89%
    02:00 +11°C° 0 mm 1 mps 754 mmHg 89%
    03:00 +11°C° 0 mm 1 mps 754 mmHg 89%
    04:00 +10°C° 0 mm 2 mps 754 mmHg 90%
    05:00 +12°C° 0 mm 2 mps 754 mmHg 87%
    06:00 +12°C° 0 mm 2 mps 754 mmHg 85%
    07:00 +13°C° 0 mm 2 mps 754 mmHg 82%
    08:00 +13°C° 0 mm 3 mps 754 mmHg 74%
    09:00 +15°C° 0 mm 4 mps 754 mmHg 66%
    10:00 +16°C° 0 mm 5 mps 754 mmHg 58%
    11:00 +17°C° 0 mm 6 mps 754 mmHg 57%
    12:00 +17°C° 0 mm 6 mps 753 mmHg 56%
    13:00 +19°C° 0 mm 6 mps 753 mmHg 54%
    14:00 +16°C° 0.6 mm 6 mps 753 mmHg 63%
    15:00 +14°C° 0.6 mm 5 mps 753 mmHg 72%
    16:00 +13°C° 0.6 mm 5 mps 753 mmHg 81%
    17:00 +12°C° 0.2 mm 4 mps 753 mmHg 83%
    18:00 +12°C° 0.2 mm 4 mps 753 mmHg 85%
    19:00 +12°C° 0.2 mm 3 mps 753 mmHg 87%
    20:00 +11°C° 0 mm 3 mps 753 mmHg 89%
    21:00 +10°C° 0 mm 3 mps 753 mmHg 91%
    22:00 +10°C° 0 mm 3 mps 753 mmHg 93%
    23:00 +10°C° 0 mm 3 mps 753 mmHg 94%

    Tomorrow, 25 April, Wednesday

    Time Temperature Precipitation Wind Pressure Humidity
    00:00 +9°C° 0 mm 2 mps 753 mmHg 95%
    01:00 +9°C° 0 mm 2 mps 752 mmHg 96%
    02:00 +9°C° 0.4 mm 2 mps 752 mmHg 96%
    03:00 +10°C° 0.4 mm 2 mps 751 mmHg 96%
    04:00 +10°C° 0.4 mm 2 mps 751 mmHg 96%
    05:00 +11°C° 0.4 mm 3 mps 750 mmHg 93%
    06:00 +11°C° 0.4 mm 4 mps 750 mmHg 91%
    07:00 +12°C° 0.4 mm 5 mps 749 mmHg 89%
    08:00 +13°C° 0.1 mm 5 mps 749 mmHg 84%
    09:00 +15°C° 0.1 mm 6 mps 749 mmHg 79%
    10:00 +16°C° 0.1 mm 7 mps 748 mmHg 74%
    11:00 +16°C° 0.5 mm 7 mps 748 mmHg 76%
    12:00 +15°C° 0.5 mm 6 mps 748 mmHg 78%
    13:00 +15°C° 0.5 mm 6 mps 748 mmHg 80%
    14:00 +15°C° 0.5 mm 7 mps 748 mmHg 77%
    15:00 +16°C° 0.5 mm 7 mps 748 mmHg 74%
    16:00 +16°C° 0.5 mm 7 mps 748 mmHg 70%
    17:00 +15°C° 0.2 mm 6 mps 748 mmHg 74%
    18:00 +13°C° 0.2 mm 5 mps 749 mmHg 79%
    19:00 +12°C° 0.2 mm 4 mps 749 mmHg 83%
    20:00 +11°C° 0 mm 3 mps 750 mmHg 84%
    21:00 +10°C° 0 mm 3 mps 750 mmHg 86%
    22:00 +9°C° 0 mm 3 mps 751 mmHg 88%
    23:00 +9°C° 0 mm 3 mps 751 mmHg 88%

    Day after tomorrow, 26 April, Thursday

    Time Temperature Precipitation Wind Pressure Humidity
    00:00 +9°C° 0 mm 3 mps 751 mmHg 88%
    01:00 +8°C° 0 mm 3 mps 752 mmHg 88%
    02:00 +8°C° 0 mm 3 mps 752 mmHg 88%
    03:00 +8°C° 0 mm 3 mps 752 mmHg 89%
    04:00 +7°C° 0 mm 3 mps 752 mmHg 90%
    05:00 +7°C° 0 mm 4 mps 752 mmHg 85%
    06:00 +8°C° 0 mm 4 mps 753 mmHg 81%
    07:00 +9°C° 0 mm 5 mps 753 mmHg 76%
    08:00 +9°C° 0.2 mm 5 mps 753 mmHg 72%
    09:00 +10°C° 0.2 mm 6 mps 753 mmHg 68%
    10:00 +11°C° 0.2 mm 6 mps 753 mmHg 65%
    11:00 +13°C° 0.5 mm 6 mps 753 mmHg 63%
    12:00 +13°C° 0.5 mm 6 mps 753 mmHg 62%
    13:00 +13°C° 0.5 mm 6 mps 753 mmHg 61%
    14:00 +13°C° 0.4 mm 6 mps 753 mmHg 60%
    15:00 +13°C° 0.4 mm 6 mps 753 mmHg 60%
    16:00 +13°C° 0.4 mm 6 mps 754 mmHg 60%
    17:00 +12°C° 0.2 mm 5 mps 754 mmHg 65%
    18:00 +11°C° 0.2 mm 4 mps 754 mmHg 70%
    19:00 +9°C° 0.2 mm 3 mps 755 mmHg 76%
    20:00 +9°C° 0 mm 3 mps 755 mmHg 79%
    21:00 +8°C° 0 mm 3 mps 756 mmHg 82%
    22:00 +7°C° 0 mm 3 mps 756 mmHg 86%
    23:00 +7°C° 0 mm 3 mps 756 mmHg 87%

    27 April, Friday

    Time Temperature Precipitation Wind Pressure Humidity
    00:00 +5°C° 0 mm 3 mps 756 mmHg 88%
    01:00 +5°C° 0 mm 3 mps 756 mmHg 90%
    02:00 +5°C° 0 mm 2 mps 756 mmHg 91%
    03:00 +5°C° 0 mm 2 mps 756 mmHg 93%
    04:00 +4°C° 0 mm 2 mps 757 mmHg 94%
    05:00 +5°C° 0 mm 2 mps 757 mmHg 89%
    06:00 +7°C° 0 mm 2 mps 757 mmHg 85%
    07:00 +8°C° 0 mm 2 mps 757 mmHg 80%
    08:00 +9°C° 0 mm 2 mps 757 mmHg 70%
    09:00 +12°C° 0 mm 2 mps 757 mmHg 60%
    10:00 +14°C° 0 mm 2 mps 757 mmHg 50%
    11:00 +15°C° 0 mm 2 mps 756 mmHg 47%
    12:00 +16°C° 0 mm 3 mps 756 mmHg 44%
    13:00 +17°C° 0 mm 3 mps 755 mmHg 40%
    14:00 +17°C° 0 mm 3 mps 755 mmHg 42%
    15:00 +17°C° 0 mm 3 mps 755 mmHg 44%
    16:00 +17°C° 0 mm 3 mps 754 mmHg 45%
    17:00 +16°C° 0 mm 3 mps 754 mmHg 51%
    18:00 +15°C° 0 mm 2 mps 754 mmHg 58%
    19:00 +13°C° 0 mm 2 mps 753 mmHg 64%
    20:00 +12°C° 0 mm 3 mps 753 mmHg 66%
    21:00 +11°C° 0 mm 3 mps 753 mmHg 69%
    22:00 +10°C° 0 mm 3 mps 753 mmHg 71%
    23:00 +10°C° 0 mm 3 mps 753 mmHg 73%

    28 April, Saturday

    Time Temperature Precipitation Wind Pressure Humidity
    00:00 +10°C° 0 mm 2 mps 753 mmHg 75%
    01:00 +9°C° 0 mm 2 mps 752 mmHg 76%
    02:00 +9°C° 0 mm 2 mps 752 mmHg 80%
    03:00 +9°C° 0 mm 2 mps 752 mmHg 84%
    04:00 +9°C° 0 mm 2 mps 752 mmHg 87%
    05:00 +10°C° 0 mm 2 mps 752 mmHg 83%
    06:00 +12°C° 0 mm 2 mps 752 mmHg 79%
    07:00 +14°C° 0 mm 2 mps 753 mmHg 75%
    08:00 +16°C° 0 mm 2 mps 753 mmHg 67%
    09:00 +18°C° 0 mm 2 mps 753 mmHg 59%
    10:00 +20°C° 0 mm 2 mps 753 mmHg 51%
    11:00 +21°C° 0 mm 2 mps 753 mmHg 47%
    12:00 +21°C° 0 mm 2 mps 753 mmHg 44%
    13:00 +22°C° 0 mm 3 mps 753 mmHg 40%
    14:00 +22°C° 0 mm 3 mps 753 mmHg 42%
    15:00 +22°C° 0 mm 3 mps 753 mmHg 44%
    16:00 +21°C° 0 mm 2 mps 753 mmHg 46%
    17:00 +20°C° 0 mm 2 mps 753 mmHg 53%
    18:00 +18°C° 0 mm 2 mps 754 mmHg 60%
    19:00 +17°C° 0 mm 2 mps 754 mmHg 66%
    20:00 +15°C° 0 mm 2 mps 754 mmHg 69%
    21:00 +13°C° 0 mm 3 mps 754 mmHg 72%
    22:00 +12°C° 0 mm 3 mps 755 mmHg 75%
    23:00 +12°C° 0 mm 3 mps 755 mmHg 76%

    29 April, Sunday

    Time Temperature Precipitation Wind Pressure Humidity
    00:00 +11°C° 0 mm 3 mps 755 mmHg 76%
    01:00 +11°C° 0 mm 3 mps 755 mmHg 76%
    02:00 +10°C° 0 mm 3 mps 755 mmHg 77%
    03:00 +10°C° 0 mm 3 mps 755 mmHg 78%
    04:00 +10°C° 0 mm 3 mps 755 mmHg 79%
    05:00 +11°C° 0 mm 3 mps 755 mmHg 77%
    06:00 +12°C° 0 mm 4 mps 755 mmHg 75%
    07:00 +13°C° 0 mm 4 mps 755 mmHg 73%
    08:00 +15°C° 0 mm 4 mps 754 mmHg 69%
    09:00 +17°C° 0 mm 5 mps 754 mmHg 64%
    10:00 +20°C° 0 mm 5 mps 754 mmHg 59%
    11:00 +21°C° 0 mm 5 mps 754 mmHg 57%
    12:00 +22°C° 0 mm 5 mps 753 mmHg 55%
    13:00 +23°C° 0 mm 6 mps 753 mmHg 53%
    14:00 +23°C° 0.2 mm 6 mps 752 mmHg 56%
    15:00 +23°C° 0.2 mm 6 mps 752 mmHg 59%
    16:00 +23°C° 0.2 mm 5 mps 751 mmHg 61%
    17:00 +21°C° 0.4 mm 5 mps 751 mmHg 68%
    18:00 +20°C° 0.4 mm 5 mps 750 mmHg 74%
    19:00 +19°C° 0.4 mm 4 mps 750 mmHg 81%
    20:00 +17°C° 0.7 mm 5 mps 750 mmHg 84%
    21:00 +16°C° 0.7 mm 5 mps 750 mmHg 87%
    22:00 +16°C° 0.7 mm 5 mps 750 mmHg 90%
    23:00 +15°C° 0.2 mm 5 mps 749 mmHg 91%
    Show more